Weather History for Springfield, OH

Change the Weather History Date:

Monday, March 11, 2013

  Actual Average (KDAY) Record (KDAY)
Temperature  
Mean Temperature 45 °F 38 °F  
Max Temperature 54 °F 48 °F 76 °F (1990)
Min Temperature 36 °F 30 °F 5 °F (1948)
Degree Days  
Heating Degree Days 20 27  
Month to date heating degree days 312  
Since 1 July heating degree days 4587  
Cooling Degree Days 0 0  
Month to date cooling degree days 0  
Year to date cooling degree days 0  
Moisture  
Dew Point 42 °F    
Average Humidity 84    
Maximum Humidity 93    
Minimum Humidity 57    
Precipitation  
Precipitation 1.09 in 0.10 in 1.00 in (1917)
Month to date precipitation 1.03  
Year to date precipitation 5.98  
Snow  
Snow 0.00 in 0.20 in 5.50 in (1906)
Month to date snowfall 1.7  
Since 1 July snowfall 21.0  
Snow Depth -    
Sea Level Pressure  
Sea Level Pressure 29.77 in    
Wind  
Wind Speed 14 mph (SSW)    
Max Wind Speed 28 mph    
Max Gust Speed 38 mph    
Visibility 5 miles    
Events Rain    
T = Trace of Precipitation, MM = Missing Value Source: NWS Daily Summary

Daily Weather History Graph

Daily Weather History Graph

Search for Another Location

Airport:

Trip Planner

Search our weather history database for the weather conditions in past years. The results will help you decide how hot, cold, wet, or windy it might be!

Date:

Astronomy

Mar. 11, 2013 Rise Set
Actual Time 7:52 AM EDT 7:38 PM EDT
Civil Twilight 7:25 AM EDT 8:05 PM EDT
Nautical Twilight 6:54 AM EDT 8:36 PM EDT
Astronomical Twilight 6:23 AM EDT 9:08 PM EDT
Moon 7:26 AM EDT (3/11) 7:49 PM EDT (3/11)
Length of Visible Light 12h 39m
Length of Day
11h 45m
Waning Crescent, 0% of the Moon is Illuminated
Mar 11
Waning Crescent
Mar 11
New
Mar 19
First Quarter
Mar 27
Full
Apr 3
Last Quarter

Hourly Weather History & Observations

Time (EDT) Temp. Windchill Dew Point Humidity Pressure Visibility Wind Dir Wind Speed Gust Speed Precip Events Conditions
12:56 AM 54.9 °F - 39.9 °F 57% 29.87 in 8.0 mi SSW 13.8 mph - 0.00 in Rain Light Rain
1:56 AM 52.9 °F - 41.0 °F 64% 29.86 in 7.0 mi SW 10.4 mph - 0.00 in Rain Light Rain
2:56 AM 50.9 °F - 43.9 °F 77% 29.86 in 4.0 mi SSW 8.1 mph - 0.03 in Rain Light Rain
3:26 AM 48.2 °F - 44.6 °F 87% 29.85 in 3.0 mi South 11.5 mph - 0.08 in Rain Rain
3:36 AM 48.2 °F - 44.6 °F 87% 29.85 in 2.5 mi South 16.1 mph 20.7 mph 0.11 in Rain Rain
3:40 AM 48.2 °F - 44.6 °F 87% 29.85 in 3.0 mi South 13.8 mph - 0.13 in Rain Rain
3:56 AM 48.9 °F - 45.0 °F 86% 29.85 in 3.0 mi South 12.7 mph - 0.19 in Rain Rain
4:04 AM 48.2 °F - 44.6 °F 87% 29.84 in 4.0 mi South 11.5 mph - 0.02 in Rain Light Rain
4:14 AM 48.2 °F - 44.6 °F 87% 29.84 in 4.0 mi South 11.5 mph - 0.03 in Rain Light Rain
4:49 AM 48.2 °F - 44.6 °F 87% 29.82 in 3.0 mi SSE 10.4 mph - 0.10 in Rain Light Rain
4:56 AM 47.8 °F - 45.0 °F 90% 29.82 in 4.0 mi South 12.7 mph - 0.10 in Rain Light Rain
5:37 AM 48.2 °F - 44.6 °F 87% 29.82 in 2.5 mi SSE 11.5 mph - 0.11 in Rain Rain
5:56 AM 47.8 °F - 43.9 °F 86% 29.83 in 3.0 mi South 13.8 mph - 0.18 in Rain Light Rain
6:18 AM 48.2 °F - 44.6 °F 87% 29.83 in 3.0 mi South 15.0 mph 21.9 mph 0.06 in Rain Rain
6:22 AM 48.2 °F - 44.6 °F 87% 29.83 in 3.0 mi South 19.6 mph - 0.07 in Rain Rain
6:45 AM 48.2 °F - 44.6 °F 87% 29.84 in 4.0 mi South 12.7 mph 20.7 mph 0.12 in Rain Light Rain
6:56 AM 47.8 °F - 43.9 °F 86% 29.83 in 3.0 mi South 6.9 mph - 0.15 in Rain Rain
7:10 AM 48.2 °F - 44.6 °F 87% 29.83 in 2.5 mi South 8.1 mph - 0.05 in Rain Rain
7:20 AM 46.4 °F 42.4 °F 44.6 °F 93% 29.83 in 3.0 mi South 8.1 mph - 0.07 in Rain Rain
7:46 AM 46.4 °F 42.4 °F 44.6 °F 93% 29.82 in 4.0 mi South 8.1 mph - 0.13 in Rain Light Rain
7:56 AM 46.9 °F - 43.9 °F 89% 29.83 in 3.0 mi South 8.1 mph - 0.16 in Rain Light Rain
8:56 AM 46.9 °F - 43.0 °F 86% 29.82 in 4.0 mi SSE 9.2 mph - 0.09 in Rain Light Rain
9:56 AM 47.8 °F - 41.9 °F 80% 29.80 in 4.0 mi SSE 13.8 mph - 0.01 in Rain Light Rain
10:56 AM 48.9 °F - 43.9 °F 83% 29.75 in 6.0 mi SSE 18.4 mph 23.0 mph 0.00 in Rain Light Rain
11:56 AM 48.9 °F - 43.9 °F 83% 29.70 in 6.0 mi SSE 16.1 mph 23.0 mph 0.00 in Rain Light Rain
12:56 PM 48.9 °F - 43.9 °F 83% 29.67 in 4.0 mi SSE 20.7 mph 27.6 mph 0.01 in Rain Light Rain
1:56 PM 50.9 °F - 46.9 °F 86% 29.64 in 4.0 mi South 20.7 mph 25.3 mph 0.01 in Rain Light Rain
2:56 PM 52.0 °F - 48.9 °F 89% 29.58 in 4.0 mi South 21.9 mph 27.6 mph 0.01 in Rain Light Rain
3:10 PM 51.8 °F - 48.2 °F 88% 29.57 in 2.0 mi South 21.9 mph 29.9 mph 0.02 in Rain Light Rain
3:15 PM 51.8 °F - 48.2 °F 88% 29.60 in 1.2 mi SW 23.0 mph 32.2 mph 0.08 in Rain Light Rain
3:17 PM 51.8 °F - 48.2 °F 88% 29.61 in 0.8 mi SW 25.3 mph 35.7 mph 0.11 in Rain Heavy Rain
3:26 PM 46.4 °F 37.5 °F 44.6 °F 93% 29.63 in 1.0 mi WSW 27.6 mph 38.0 mph 0.14 in Rain Rain
3:28 PM 46.4 °F 38.1 °F 44.6 °F 93% 29.64 in 2.0 mi WSW 24.2 mph 38.0 mph 0.14 in Rain Light Rain
3:32 PM 46.4 °F 38.3 °F 42.8 °F 87% 29.64 in 4.0 mi WSW 23.0 mph 32.2 mph 0.15 in Rain Light Rain
3:56 PM 45.9 °F 38.8 °F 43.0 °F 90% 29.65 in 8.0 mi WSW 17.3 mph 27.6 mph 0.15 in Rain Light Rain
4:56 PM 45.9 °F 38.5 °F 41.0 °F 83% 29.64 in 8.0 mi SW 18.4 mph 26.5 mph 0.00 in   Mostly Cloudy
5:56 PM 45.9 °F 39.4 °F 39.9 °F 80% 29.67 in 8.0 mi WSW 15.0 mph - N/A   Overcast
6:13 PM 46.4 °F 39.5 °F 41.0 °F 81% 29.67 in 8.0 mi WSW 17.3 mph 23.0 mph N/A   Overcast
6:56 PM 45.0 °F 37.4 °F 37.9 °F 76% 29.70 in 8.0 mi West 18.4 mph 26.5 mph N/A   Overcast
7:56 PM 41.9 °F 33.7 °F 34.9 °F 76% 29.75 in 10.0 mi West 17.3 mph - N/A   Overcast
8:19 PM 41.0 °F 33.1 °F 33.8 °F 76% 29.75 in 10.0 mi WSW 15.0 mph - N/A   Overcast
8:47 PM 39.2 °F 30.5 °F 33.8 °F 81% 29.77 in 9.0 mi West 16.1 mph - N/A   Overcast
8:56 PM 39.9 °F 30.8 °F 32.9 °F 76% 29.78 in 9.0 mi West 18.4 mph - N/A   Overcast
9:56 PM 37.9 °F 28.9 °F 32.9 °F 82% 29.82 in 9.0 mi West 16.1 mph - N/A   Overcast
10:13 PM 37.4 °F 27.5 °F 33.8 °F 87% 29.81 in 8.0 mi West 18.4 mph - N/A   Overcast
10:21 PM 37.4 °F 27.2 °F 32.0 °F 81% 29.82 in 8.0 mi West 19.6 mph - N/A   Overcast
10:56 PM 36.9 °F 28.2 °F 32.0 °F 83% 29.84 in 8.0 mi West 13.8 mph - N/A   Overcast
11:16 PM 37.4 °F 27.8 °F 32.0 °F 81% 29.82 in 9.0 mi WSW 17.3 mph - N/A   Overcast
11:56 PM 36.0 °F 26.3 °F 31.1 °F 82% 29.85 in 9.0 mi WSW 16.1 mph - N/A   Overcast